Starlink 30753

operational
NORAD ID: 58175 Int'l Des: 2023-167 Owner: SPXS Country: US Constellation: starlink
LEOCIRCULAR

About Starlink 30753

Description loading...

Live Position

Loading 3D Globe...

Upcoming Passes

Altitude History

Altitude vs Time

uPlot chart will show altitude changes over time

Two-Line Element Set

1 58175U 23167A 25303.22647446 .00000708 00000-0 67477-4 0 9993
2 58175 43.0037 134.5508 0001400 262.3550 97.7133 15.02538786111333
Epoch: Oct 30, 2025 • Age: 12 hours

Current Status

Altitude 559.2 km
Velocity 7.58 km/s
Sub-Earth Point -3.15°S, 14.6°E
Launch Date Oct 30, 2023
Age 1.9 years
Type internet

Technical Details

Classification Payload
Mass 730.00 kg
Dry Mass 700.00 kg
Total Mass 730.00 kg
Length 0.30 m
Diameter 4.10 m
Span 29.00 m
Shape Box + pan
Manufacturer SPXS
Bus Type Starlink V2M
Phase Status In Orbit
Owner/State SPXS/US

Large Constellations

Loading constellations...